Theta_e
293 294 294 295 295 295 295 296 297 298 299 301 302 304 307 310 312 315 321 325 326 325 324 325 326 326 325 323 323 322 322 321
292 292 292 293 293 292 292 294 295 295 295 297 299 301 304 308 312 313 316 320 323 324 323 324 324 325 325 324 323 321 321 321
290 289 289 290 291 290 290 291 291 292 292 294 296 299 300 301 307 312 314 316 318 321 321 322 322 323 323 323 322 321 320 321
287 287 287 287 288 288 288 288 289 289 290 291 293 295 295 297 301 303 307 312 315 316 317 318 320 321 322 322 322 322 321 321
285 284 285 285 285 286 286 286 286 287 288 289 291 291 291 293 295 297 300 304 309 310 313 316 318 319 320 320 321 321 321 321
283 283 283 282 282 284 283 283 284 285 286 287 289 289 288 289 290 292 294 297 300 303 305 307 309 310 306 314 318 318 318 317
282 281 281 280 280 282 280 280 282 283 284 285 286 285 286 287 288 289 290 293 294 296 297 298 302 298 296 296 303 306 308 312
279 278 278 278 280 277 277 278 280 281 282 281 283 281 282 285 286 287 289 291 292 293 294 294 296 296 295 294 296 299 303 303
277 276 276 277 276 275 276 277 277 277 278 277 277 277 279 281 284 286 288 289 290 292 293 293 293 294 294 293 295 296 296 296
276 275 275 274 273 274 274 274 274 275 274 274 275 275 276 278 281 284 286 288 289 290 290 289 290 292 293 293 290 289 290 289
273 273 272 271 272 271 272 271 272 271 272 273 273 274 274 275 278 283 286 286 288 288 288 287 287 290 292 292 287 287 287 286
270 269 269 270 270 269 269 269 270 270 270 271 271 272 272 275 278 281 285 286 287 287 287 286 286 287 290 292 288 287 287 286
267 267 268 268 268 267 267 268 268 268 268 268 268 270 272 273 276 281 285 285 286 286 287 287 286 286 289 291 291 290 286 286
266 265 266 266 267 265 266 267 266 265 265 266 268 270 272 273 276 280 284 285 285 286 286 286 285 285 288 290 291 291 286 285
264 263 263 265 265 264 265 266 264 263 265 266 268 269 271 274 278 281 283 284 285 285 285 286 284 284 285 285 286 286 286 287
263 263 262 263 263 263 265 265 263 264 265 267 268 269 271 274 278 282 281 282 282 284 285 285 284 284 285 285 285 285 285 285
262 262 261 261 261 262 263 264 263 264 266 267 267 269 271 273 279 282 282 281 281 281 285 285 286 286 286 286 286 286 286 283
260 260 259 259 259 261 262 263 263 263 265 266 267 268 269 271 271 270 273 277 278 278 280 282 285 286 286 284 282 283 281 278
257 256 256 256 257 262 262 262 262 264 265 265 266 267 267 268 268 268 267 267 270 273 274 277 278 278 278 279 275 271 272 271
251 253 255 256 258 261 261 261 262 263 264 265 266 266 266 267 267 267 266 266 266 269 269 269 273 273 273 272 266 266 265 266
Wind_Speed
11 11 10 10 10 12 13 13 13 16 15 13 13 12 11 9 10 11 11 10 12 12 12 14 16 16 17 14 15 16 13 12
9 8 9 9 11 12 13 13 14 16 16 16 16 15 13 11 10 10 11 11 11 13 13 14 14 15 16 16 16 17 16 16
10 10 12 12 12 12 13 13 13 13 14 15 15 16 16 15 15 13 12 11 11 11 11 12 13 13 15 16 14 16 17 17
11 12 11 12 12 13 13 14 14 14 14 13 14 15 17 18 17 16 15 13 11 9 9 10 11 12 13 14 15 16 17 17
10 11 11 11 12 12 12 12 14 13 13 13 16 17 16 18 18 17 15 14 12 9 9 8 7 7 8 10 12 13 13 14
12 12 12 13 14 12 13 14 14 13 13 14 15 16 16 18 19 17 17 14 12 12 9 7 7 5 7 7 10 11 12 11
11 11 11 12 13 12 14 16 15 14 13 14 15 17 16 16 19 19 18 16 13 13 13 11 6 5 7 6 6 7 6 9
10 11 12 12 12 14 15 15 14 14 14 14 15 17 16 17 17 17 16 16 16 15 13 13 11 9 10 10 6 7 8 7
10 12 12 12 12 13 13 13 14 14 14 16 17 17 17 17 16 16 14 14 14 16 14 12 9 12 12 12 7 6 6 6
10 12 12 14 15 15 14 14 15 14 16 17 18 19 19 18 17 16 15 14 13 12 12 10 9 13 13 10 6 6 7 5
13 13 13 14 15 15 15 15 15 17 18 17 18 18 19 19 18 15 14 15 12 12 11 10 10 11 12 10 3 6 4 4
11 11 12 13 14 15 15 15 16 16 18 18 18 18 18 19 17 17 15 14 13 13 10 8 7 9 13 13 5 6 5 4
11 12 12 15 15 16 15 17 16 17 17 17 18 16 15 18 17 17 15 14 13 12 9 6 5 8 11 13 13 9 6 5
12 12 12 13 14 15 16 16 17 16 16 16 17 16 16 16 17 14 13 11 11 9 8 7 4 4 11 12 12 11 4 2
10 10 10 11 12 11 14 15 16 16 16 16 16 16 16 13 13 11 10 10 9 9 9 7 4 4 4 4 4 5 4 5
7 8 10 11 11 11 13 14 14 14 14 15 13 15 15 14 12 7 7 13 9 9 7 7 5 4 3 3 3 3 1 3
7 8 9 11 12 13 13 13 12 13 12 13 13 13 12 12 10 9 14 22 28 31 18 4 5 2 1 3 4 4 6 4
8 8 10 10 11 12 13 13 13 12 13 12 13 12 12 12 11 10 12 19 25 29 31 32 24 20 19 21 24 21 16 8
6 7 7 8 9 12 13 12 11 12 14 10 11 11 11 11 10 9 10 11 12 19 24 27 30 31 30 23 21 11 14 10
4 5 6 8 11 13 13 12 10 10 9 10 10 10 11 10 10 10 10 11 11 11 19 21 25 31 32 29 13 10 11 10
Wind_Direction
49 41 35 30 24 24 20 12 1 357 352 341 330 326 320 307 295 291 280 255 245 235 227 226 226 227 224 225 227 227 226 227
53 42 34 25 22 16 14 11 5 357 345 340 337 333 330 324 316 307 300 283 256 247 240 234 231 228 228 228 227 223 225 225
38 29 26 17 12 10 5 9 1 351 342 340 338 339 338 333 327 329 318 304 279 260 249 242 236 232 231 232 226 228 225 225
31 24 16 8 5 2 2 359 353 347 343 343 343 344 340 333 329 328 325 320 313 285 266 258 247 240 233 230 231 230 230 229
28 20 9 3 355 357 352 351 350 343 342 343 341 343 336 331 331 328 325 318 316 314 314 310 298 267 249 238 236 236 235 235
11 7 360 355 349 348 351 345 345 338 340 338 332 335 332 331 328 324 318 314 309 309 304 303 304 315 319 287 246 236 239 237
356 359 348 348 339 350 342 338 339 334 336 334 329 332 327 326 325 323 320 316 312 311 308 305 294 300 307 299 292 291 278 257
353 351 342 344 342 342 336 328 333 331 332 333 329 323 321 320 317 316 313 315 310 306 304 298 296 296 296 290 272 270 270 260
349 341 342 337 346 335 332 330 333 330 334 332 327 318 316 314 310 310 309 305 302 301 297 294 292 286 281 285 277 268 263 262
350 340 338 346 339 337 336 338 334 336 333 326 321 316 316 310 309 306 301 299 294 289 287 281 282 282 275 279 278 267 258 261
352 345 345 343 342 338 340 337 337 334 326 319 313 311 308 304 301 300 293 292 291 284 276 271 276 279 277 275 260 268 257 257
357 346 341 340 342 342 337 336 331 323 318 313 311 308 300 299 299 298 294 292 287 281 275 264 262 277 279 276 257 250 245 236
357 351 350 348 345 340 336 333 326 324 316 311 309 304 301 298 297 293 292 293 288 282 278 261 254 263 275 278 272 255 240 237
355 348 348 344 344 337 330 328 324 320 315 311 309 304 303 299 296 293 294 290 290 284 280 276 246 247 271 278 278 268 240 229
347 342 337 338 332 323 324 328 324 319 320 319 316 314 309 305 294 292 296 298 296 289 283 278 255 243 261 282 293 264 231 197
334 335 329 327 329 327 332 330 328 324 325 328 323 318 314 308 302 331 30 13 354 311 284 281 262 244 227 278 305 316 285 98
330 335 330 337 336 329 332 325 335 334 340 336 328 327 326 326 329 346 8 23 23 14 9 304 289 249 160 329 327 72 49 49
330 332 333 330 323 330 329 333 345 341 344 339 339 339 339 345 352 351 349 10 20 21 20 31 40 52 62 75 62 51 61 61
332 329 322 312 319 333 334 337 343 346 351 350 344 348 350 355 360 4 7 3 2 13 21 28 41 46 45 49 52 41 40 42
322 314 326 334 335 338 337 340 342 352 356 353 352 354 358 1 5 10 11 15 8 11 17 15 26 47 43 41 46 37 34 32